Orbital Elements at Epoch 2459200.5 (2020-Dec-17.0) TDB
Reference: JPL 17 (heliocentric ecliptic J2000)
Element | Value | Uncertainty (1-sigma) | Units |
e | .05602386230549092 | 5.4404e-08 | |
a | 2.882604022276148 | 2.5491e-08 | au |
q | 2.721109411450894 | 1.6176e-07 | au |
i | 1.01409607216003 | 5.4773e-06 | deg |
node | 262.7291753444114 | 0.00048355 | deg |
peri | 148.901764929361 | 0.00048999 | deg |
M | 103.5077192008106 | 8.1418e-05 | deg |
tp | 2458686.520085825583 (2019-Jul-22.02008583) | 0.00040114 | TDB |
period | 1787.622899349338 4.89 | 2.3712e-05 6.492e-08 | d yr |
n | .2013847552137721 | 2.6712e-09 | deg/d |
Q | 3.044098633101401 | 2.6919e-08 | au |
|
| | Orbit Determination Parameters
Additional Information
|